Total_Precipitation_Accumulation
1.92 1.74 1.59 1.59 1.41 1.25 1.06 1.11 1.25 1.26 1.25 1.04 1.00 1.20 1.41 1.64 1.88 2.44 2.14 1.41 2.42 2.18 0.67 0.37 0.32 0.31 0.21 0.37 0.68 0.51 0.96 0.78 0.99 0.85 0.50 0.27 0.20 0.20 0.28 0.25 0.32 0.37 0.73 0.74 0.80 0.89 0.41 0.05 0.19 0.39 0.39 0.16 0.09 0.07
2.14 1.77 1.55 1.55 1.44 1.35 1.08 1.05 1.06 1.16 1.18 0.98 0.87 1.04 1.24 1.61 2.13 2.82 2.97 1.61 1.95 2.33 1.30 0.59 0.33 0.28 0.16 0.21 0.61 0.78 0.62 0.63 0.58 0.69 0.50 0.45 0.42 0.33 0.26 0.57 0.33 0.54 0.32 0.43 0.35 0.36 0.39 0.27 0.32 0.34 0.17 0.18 0.16 0.10
2.35 1.73 1.38 1.38 1.29 1.12 1.04 0.97 0.93 1.08 1.07 0.92 0.98 1.09 1.35 1.47 2.03 3.57 3.09 1.80 3.84 3.46 1.55 0.63 0.41 0.21 0.23 0.19 0.37 0.83 0.52 0.60 0.78 0.70 0.79 0.67 0.48 0.26 0.28 0.31 0.45 0.67 0.57 0.65 0.76 0.73 0.52 0.59 0.38 0.13 0.12 0.21 0.22 0.16
2.35 1.81 1.33 1.37 1.26 1.00 1.06 1.01 0.82 0.98 1.08 0.99 1.11 1.29 1.32 1.54 2.05 3.50 3.19 2.00 3.47 2.80 2.00 0.82 0.33 0.34 0.29 0.23 0.20 0.27 0.34 0.38 0.54 0.92 0.90 0.70 0.44 0.23 0.26 0.42 0.53 0.49 0.75 1.02 1.26 1.03 0.77 0.87 0.79 0.60 0.40 0.18 0.15 0.17
2.29 1.81 1.47 1.40 1.26 0.98 0.96 0.88 0.76 0.89 1.01 1.08 1.17 1.26 1.59 1.86 2.69 3.47 2.67 1.93 2.08 2.30 2.05 1.07 0.35 0.33 0.34 0.37 0.25 0.30 0.42 0.51 0.73 1.11 1.15 0.56 0.32 0.30 0.28 0.53 0.42 0.19 0.52 1.02 1.58 1.22 0.98 0.96 0.52 0.36 0.31 0.27 0.15 0.07
2.13 1.66 1.51 1.27 1.10 0.86 0.82 0.77 0.77 0.95 0.93 1.10 1.14 1.52 1.97 2.64 3.98 5.07 6.50 3.50 1.69 2.15 2.47 1.60 0.83 0.33 0.38 0.48 0.44 0.36 0.47 0.80 1.04 1.04 0.88 0.61 0.38 0.85 0.85 0.73 0.36 0.19 0.27 0.44 0.74 1.03 0.95 0.75 0.48 0.28 0.18 0.09 0.03 0.01
1.87 1.58 1.56 1.28 1.06 0.86 0.78 0.78 0.84 0.93 1.02 1.30 1.53 1.85 2.46 3.51 3.28 2.85 2.88 1.67 1.15 2.20 3.05 1.78 1.31 0.50 0.43 0.71 0.85 0.80 0.90 1.13 1.09 1.09 0.70 0.40 0.44 0.93 1.26 0.85 0.47 0.30 0.32 0.40 0.41 0.48 0.37 0.23 0.16 0.07 0.02 0.01 0.02 0.01
1.80 1.65 1.46 1.30 1.09 0.87 0.88 1.00 1.03 1.09 1.45 1.72 2.16 2.61 3.42 3.81 3.38 2.21 0.96 0.84 1.17 2.33 1.79 1.46 1.45 1.33 0.88 1.00 1.26 1.09 1.36 1.34 1.38 1.13 0.68 0.48 0.58 0.84 0.94 0.28 0.07 0.11 0.15 0.19 0.22 0.19 0.20 0.14 0.05 0.03 0.02 0.03 0.04 0.07
1.59 1.33 1.17 1.06 0.97 1.02 1.10 1.15 1.31 1.89 2.11 2.48 2.97 4.19 5.34 4.77 3.97 1.95 1.33 1.31 1.55 2.16 1.55 0.75 1.12 1.78 1.44 1.17 1.21 1.43 1.26 1.53 1.07 0.78 0.44 0.76 0.88 1.00 0.50 0.08 0.03 0.02 0.02 0.02 0.03 0.06 0.09 0.10 0.07 0.04 0.04 0.06 0.13 0.29
1.23 0.98 0.79 0.84 0.94 1.10 1.14 1.39 1.84 2.41 2.62 3.10 4.16 5.47 6.08 3.19 1.80 2.32 3.86 3.65 3.26 2.11 0.96 0.57 0.68 1.63 1.89 1.77 1.25 1.56 1.52 1.19 1.14 0.56 0.61 0.71 0.77 0.51 0.16 0.05 0.02 0.01 0.01 0.01 0.02 0.02 0.04 0.10 0.13 0.15 0.22 0.29 0.31 0.27
1.03 0.77 0.63 0.68 0.78 0.86 0.93 1.18 1.58 2.15 3.11 4.14 4.69 4.46 3.39 2.58 2.36 3.14 3.47 2.63 1.90 1.00 0.43 0.45 0.51 1.09 1.57 1.64 1.31 1.33 1.62 1.28 0.94 0.89 0.96 0.98 0.54 0.33 0.19 0.11 0.04 0.03 0.03 0.02 0.03 0.04 0.07 0.15 0.31 0.32 0.22 0.16 0.13 0.12
1.08 0.71 0.60 0.61 0.62 0.67 0.68 0.86 1.31 1.86 2.74 3.08 3.27 3.44 4.22 3.71 2.94 2.73 2.25 1.36 0.64 0.47 0.28 0.32 0.38 0.64 1.50 1.78 1.72 1.59 1.69 1.62 1.13 0.95 1.13 0.88 0.53 0.18 0.11 0.11 0.09 0.07 0.07 0.08 0.12 0.19 0.23 0.26 0.23 0.18 0.15 0.15 0.17 0.18
1.10 0.77 0.69 0.65 0.66 0.76 0.78 0.98 1.12 1.45 2.30 2.83 2.84 3.24 3.60 3.09 2.61 1.78 1.12 0.62 0.44 0.54 0.26 0.39 0.44 0.68 1.03 1.59 2.11 1.39 1.63 1.74 1.13 1.15 0.90 0.59 0.40 0.28 0.31 0.30 0.33 0.32 0.30 0.29 0.21 0.17 0.15 0.13 0.10 0.11 0.15 0.21 0.24 0.32
0.98 0.70 0.70 0.67 0.75 0.96 0.99 1.21 1.41 2.05 2.24 2.47 2.55 2.62 2.36 1.96 1.36 0.99 0.64 0.44 0.41 0.38 0.35 0.71 0.47 0.61 0.80 1.21 1.77 1.57 1.59 1.30 1.48 0.89 0.65 0.65 0.74 0.71 0.47 0.36 0.33 0.41 0.43 0.43 0.44 0.41 0.41 0.41 0.48 0.55 0.62 0.73 0.68 0.88
0.81 0.70 0.72 0.78 0.85 0.91 1.23 1.44 1.37 1.46 1.59 1.58 1.50 1.50 1.16 1.25 1.02 0.85 0.72 0.60 0.56 0.54 0.69 1.04 1.14 1.01 1.18 1.36 1.19 0.98 0.93 0.81 0.66 0.74 0.73 0.72 0.77 0.60 0.49 0.51 0.54 0.60 0.62 0.61 0.62 0.62 0.72 0.75 0.68 0.84 0.96 0.93 0.78 0.79
1.14 1.12 0.96 0.89 0.93 0.96 1.07 1.14 1.19 1.23 0.95 0.84 0.88 1.11 1.04 0.93 0.91 0.83 0.84 0.84 0.80 0.93 1.13 1.28 1.28 0.97 1.04 0.79 0.62 0.56 0.54 0.62 0.75 0.62 0.51 0.49 0.53 0.58 0.64 0.67 0.78 0.78 0.68 0.63 0.64 0.60 0.60 0.62 0.57 0.63 0.68 0.65 0.67 0.55
1.26 1.09 1.13 0.88 0.83 0.83 0.78 0.70 0.81 0.85 0.75 0.61 0.94 1.01 0.95 0.87 0.92 0.93 0.85 0.81 0.81 0.84 1.09 0.94 0.64 0.57 0.49 0.41 0.52 0.55 0.71 0.71 0.60 0.66 0.72 0.67 0.70 0.76 0.74 0.78 0.82 0.78 0.70 0.64 0.60 0.58 0.61 0.61 0.45 0.31 0.40 0.57 0.45 0.42
1.31 0.79 0.65 0.60 0.59 0.60 0.60 0.48 0.36 0.28 0.43 0.76 0.84 1.14 0.83 0.94 0.93 0.85 0.79 0.63 0.67 0.66 0.56 0.58 0.41 0.31 0.43 0.49 0.64 0.70 0.73 0.75 0.78 0.80 0.81 0.83 0.79 0.80 0.81 0.82 0.84 0.75 0.65 0.61 0.53 0.53 0.54 0.49 0.38 0.44 0.39 0.38 0.26 0.25
1.29 0.85 0.62 0.60 0.41 0.31 0.32 0.21 0.10 0.29 0.60 0.68 0.80 0.69 0.55 0.67 0.66 0.63 0.45 0.40 0.52 0.50 0.62 0.41 0.40 0.50 0.65 0.70 0.79 0.75 0.77 0.78 0.82 0.79 0.76 0.78 0.77 0.78 0.81 0.78 0.70 0.64 0.50 0.50 0.42 0.40 0.42 0.38 0.37 0.32 0.27 0.18 0.17 0.17
1.21 0.92 0.66 0.40 0.18 0.19 0.17 0.09 0.02 0.14 0.39 0.47 0.42 0.28 0.26 0.38 0.29 0.20 0.17 0.10 0.17 0.40 0.66 0.51 0.78 0.92 0.91 0.95 0.87 0.79 0.81 0.73 0.49 0.46 0.64 0.75 0.81 0.65 0.72 0.65 0.59 0.53 0.40 0.39 0.36 0.34 0.26 0.20 0.19 0.18 0.16 0.17 0.16 0.18
1.16 1.08 0.81 0.47 0.23 0.21 0.19 0.05 0.08 0.09 0.17 0.29 0.23 0.09 0.15 0.11 0.16 0.15 0.18 0.04 0.15 0.37 0.69 0.79 0.79 0.86 0.73 0.73 0.63 0.53 0.52 0.43 0.38 0.34 0.43 0.56 0.67 0.51 0.52 0.53 0.47 0.42 0.35 0.35 0.27 0.28 0.21 0.22 0.23 0.18 0.17 0.15 0.15 0.15
0.77 0.86 0.87 0.56 0.36 0.14 0.16 0.04 0.06 0.05 0.04 0.10 0.08 0.06 0.14 0.20 0.18 0.13 0.08 0.12 0.44 0.64 0.66 0.57 0.59 0.49 0.37 0.43 0.52 0.50 0.58 0.43 0.36 0.32 0.34 0.33 0.39 0.40 0.45 0.51 0.38 0.35 0.30 0.30 0.23 0.21 0.17 0.15 0.12 0.12 0.11 0.11 0.12 0.11
0.39 0.49 0.53 0.49 0.37 0.16 0.21 0.11 0.07 0.03 0.06 0.08 0.08 0.06 0.07 0.09 0.12 0.06 0.12 0.22 0.51 0.63 0.44 0.33 0.34 0.27 0.27 0.34 0.22 0.21 0.26 0.25 0.33 0.41 0.40 0.35 0.33 0.35 0.31 0.33 0.31 0.27 0.22 0.22 0.18 0.17 0.15 0.11 0.08 0.08 0.09 0.08 0.11 0.14
0.35 0.52 0.56 0.44 0.26 0.19 0.14 0.23 0.14 0.07 0.05 0.06 0.08 0.09 0.09 0.08 0.08 0.07 0.15 0.27 0.46 0.34 0.23 0.24 0.22 0.20 0.15 0.10 0.12 0.15 0.18 0.12 0.15 0.19 0.23 0.16 0.15 0.20 0.16 0.15 0.14 0.16 0.17 0.16 0.14 0.15 0.13 0.12 0.10 0.12 0.12 0.12 0.15 0.18
0.53 0.44 0.42 0.31 0.16 0.09 0.07 0.13 0.19 0.08 0.06 0.05 0.09 0.10 0.08 0.05 0.08 0.09 0.14 0.35 0.29 0.30 0.28 0.26 0.19 0.17 0.18 0.21 0.19 0.17 0.13 0.10 0.09 0.09 0.15 0.13 0.12 0.11 0.09 0.07 0.07 0.08 0.07 0.11 0.13 0.15 0.17 0.15 0.17 0.19 0.17 0.18 0.21 0.24
0.48 0.31 0.20 0.14 0.07 0.08 0.06 0.07 0.07 0.06 0.06 0.10 0.13 0.13 0.08 0.10 0.09 0.16 0.27 0.40 0.31 0.31 0.33 0.34 0.30 0.23 0.22 0.16 0.16 0.15 0.12 0.11 0.08 0.07 0.11 0.07 0.08 0.12 0.10 0.07 0.06 0.08 0.09 0.12 0.15 0.16 0.12 0.14 0.19 0.18 0.25 0.25 0.21 0.21
0.26 0.21 0.09 0.07 0.10 0.15 0.14 0.11 0.10 0.12 0.11 0.16 0.16 0.13 0.19 0.17 0.17 0.33 0.37 0.36 0.33 0.32 0.26 0.24 0.20 0.19 0.19 0.16 0.13 0.13 0.09 0.05 0.04 0.06 0.04 0.03 0.05 0.08 0.15 0.22 0.22 0.18 0.09 0.11 0.14 0.16 0.18 0.19 0.19 0.18 0.22 0.28 0.30 0.30
0.14 0.12 0.14 0.23 0.29 0.26 0.28 0.23 0.23 0.26 0.33 0.36 0.23 0.19 0.21 0.20 0.37 0.49 0.45 0.43 0.42 0.24 0.18 0.14 0.10 0.10 0.08 0.10 0.15 0.18 0.17 0.12 0.08 0.06 0.07 0.12 0.14 0.15 0.16 0.16 0.15 0.11 0.12 0.14 0.16 0.16 0.18 0.21 0.20 0.20 0.20 0.26 0.34 0.34
0.20 0.25 0.24 0.27 0.27 0.25 0.28 0.30 0.31 0.26 0.23 0.26 0.26 0.28 0.21 0.27 0.47 0.45 0.38 0.35 0.28 0.17 0.16 0.16 0.24 0.16 0.14 0.14 0.16 0.18 0.17 0.16 0.16 0.14 0.11 0.14 0.22 0.24 0.17 0.14 0.13 0.12 0.13 0.12 0.13 0.17 0.19 0.21 0.18 0.20 0.26 0.28 0.27 0.25
0.18 0.18 0.19 0.15 0.17 0.21 0.29 0.21 0.22 0.18 0.11 0.12 0.11 0.15 0.19 0.46 0.67 0.43 0.30 0.28 0.27 0.26 0.23 0.19 0.20 0.17 0.19 0.15 0.17 0.21 0.24 0.18 0.17 0.22 0.21 0.18 0.19 0.19 0.15 0.13 0.12 0.12 0.12 0.10 0.11 0.12 0.11 0.09 0.10 0.17 0.13 0.11 0.14 0.17
0.20 0.23 0.21 0.18 0.25 0.27 0.25 0.19 0.18 0.15 0.15 0.14 0.13 0.16 0.33 0.45 0.51 0.43 0.32 0.38 0.30 0.18 0.19 0.21 0.19 0.21 0.23 0.23 0.20 0.16 0.21 0.18 0.16 0.15 0.14 0.14 0.15 0.13 0.11 0.09 0.08 0.09 0.08 0.07 0.08 0.08 0.09 0.09 0.11 0.12 0.09 0.08 0.10 0.09
0.28 0.31 0.25 0.25 0.33 0.27 0.31 0.31 0.23 0.24 0.23 0.17 0.24 0.21 0.29 0.27 0.29 0.33 0.37 0.36 0.35 0.26 0.27 0.28 0.26 0.31 0.31 0.29 0.24 0.20 0.17 0.16 0.15 0.16 0.15 0.15 0.14 0.12 0.08 0.07 0.07 0.08 0.08 0.08 0.08 0.10 0.10 0.09 0.10 0.09 0.10 0.08 0.08 0.07
0.19 0.18 0.19 0.20 0.21 0.25 0.27 0.24 0.18 0.19 0.19 0.21 0.31 0.31 0.33 0.28 0.29 0.34 0.32 0.38 0.48 0.37 0.33 0.33 0.36 0.37 0.31 0.23 0.22 0.22 0.20 0.21 0.19 0.18 0.16 0.13 0.10 0.08 0.07 0.07 0.07 0.07 0.07 0.07 0.09 0.10 0.08 0.07 0.07 0.08 0.07 0.06 0.05 0.05